Regional Weather Roundup
Issued by NWS

Home | Current Version | Previous Version | Text Only | Print | Product List | Glossary On
Versions: 1 2 3 4 5 6 7 8 9 10 11 12 13 14 15 16 17 18 19 20 21 22 23 24 25 26 27 28 29 30 31 32 33 34 35 36 37 38 39 40 41 42 43 44 45 46 47 48 49 50
955
ASUS43 KLOT 241402
RWRIL

ILLINOIS REGIONAL WEATHER ROUNDUP
NATIONAL WEATHER SERVICE CHICAGO/ROMEOVILLE IL
900 AM CDT FRI MAR 24 2017

NOTE: "FAIR" INDICATES FEW OR NO CLOUDS BELOW 12,000 FEET WITH NO
SIGNIFICANT WEATHER AND/OR OBSTRUCTIONS TO VISIBILITY.

* THESE STATIONS ARE NOT UNDER NWS QUALITY CONTROL. THEY ALSO MAY NOT
  REPORT WEATHER SUCH AS PRECIPITATION OR FOG.

ILZ001-002-007-009-015-016-024-241500-
NORTHWEST ILLINOIS

CITY           SKY/WX    TMP DP  RH WIND       PRES   REMARKS
MOLINE         CLOUDY    62  47  57 S17G25    29.86S
STERLING*      CLOUDY    59  48  67 S8        29.89S
SAVANNA*       CLOUDY    56  47  72 S12       29.86S
$$

ILZ003-004-008-010-011-017-018-241500-
NORTH CENTRAL ILLINOIS

CITY           SKY/WX    TMP DP  RH WIND       PRES   REMARKS
ROCKFORD       CLOUDY    56  47  71 S8        29.90F
FREEPORT*      CLOUDY    53  46  75 S18G25    29.87S
ROCHELLE*      MOSUNNY   56  47  71 SW17      29.91R
DE KALB*       CLOUDY    54  46  75 S20       29.92S
$$

ILZ005-006-012>014-019>023-241500-
NORTHEAST ILLINOIS

CITY           SKY/WX    TMP DP  RH WIND       PRES   REMARKS
CHICAGO-OHARE  CLOUDY    59  47  64 S17       29.91S
CHICAGO-MIDWAY CLOUDY    59  48  67 SW18      29.94S
AURORA         CLOUDY    58  47  66 S9        29.93S
LANSING*       CLOUDY    57  50  78 SW16G23   29.97S
JOLIET*        SUNNY     59  49  69 S9        29.95S
WAUKEGAN       CLOUDY    58  47  66 VRB5      29.91R
DUPAGE AIRPORT MOSUNNY   55  48  77 S15       29.92S
WHEELING       CLOUDY    58  49  72 SW12      29.92S
MORRIS*        SUNNY     60  48  66 S18       29.93S
NORTHERLY ISL    N/A     58  45  62 S13         N/A
$$

LMZ740>746-241500-
SOUTHERN LAKE MICHIGAN

STATION/POSITION SKY/WX   TEMP    WIND        PRES    VSBY  WAVE
                          AIR SEA DIR/SP/G                  HT/PER
                          (F)     (DEG/KT/KT) (MB)    (MI)  (FT/S)
HARRISON CRIB              57     210/ 26/ 30   N/A
BURNHAM HARBOR             58     180/  9/ 15   N/A
CALUMET HARBOR             56     190/ 13/ 17 1013.4S
BURNS HARBOR               58     200/ 23/ 28 1014.6S
MICHIGAN CITY              59     180/ 23/ 28   N/A
$$

ILZ025>027-034>036-040-047-049-050-058-095>099-241500-
WEST-CENTRAL ILLINOIS

CITY           SKY/WX    TMP DP  RH WIND       PRES   REMARKS
QUINCY         SUNNY     63  50  62 S10       29.92S
GALESBURG*     SUNNY     57  49  73 S12       29.91S
MACOMB*        SUNNY     59  50  71 S12       29.94S
JACKSONVILLE*  SUNNY     62  51  66 S13       29.96F
PITTSFIELD*    SUNNY     63  51  66 S10       29.96S
$$

ILZ028>032-037-038-041>044-048-051>054-059>061-241500-
CENTRAL ILLINOIS

CITY           SKY/WX    TMP DP  RH WIND       PRES   REMARKS
PONTIAC        SUNNY     60  51  71 S21       29.98S
BLOOMINGTON    SUNNY     57  49  74 S20       29.98S
DECATUR        SUNNY     60  50  69 S20       30.02F
PEORIA         SUNNY     57  48  72 S14       29.95S
SPRINGFIELD    SUNNY     63  51  65 S17       29.99S
TAYLORVILLE    NOT AVBL
$$

ILZ033-039-045-046-055>057-062-063-241500-
EAST-CENTRAL ILLINOIS

CITY           SKY/WX    TMP DP  RH WIND       PRES   REMARKS
CHAMPAIGN      SUNNY     61  50  67 S20G25    30.03F
RANTOUL*       SUNNY     60  52  73 S18G24    30.02F
MATTOON        SUNNY     59  52  77 S14       30.07S
$$

ILZ079-100>102-241500-
SOUTHWEST ILLINOIS

CITY           SKY/WX    TMP DP  RH WIND       PRES   REMARKS
ALTON          SUNNY     63  54  72 S10       30.02F
BELLEVILLE     SUNNY     66  57  73 S10       30.03F
CAHOKIA*       SUNNY     66  54  65 SE10      30.02F
SPARTA*        SUNNY     64  55  74 S13       30.08F
$$

ILZ064>066-069>071-074>076-080>082-084>086-088>090-092>094-241500-
SOUTH-CENTRAL ILLINOIS

CITY           SKY/WX    TMP DP  RH WIND       PRES   REMARKS
CARBONDALE     MOSUNNY   65  58  78 S21       30.10R
CAIRO*         CLOUDY    64  57  80 S12       30.14R
EFFINGHAM*     SUNNY     61  54  77 SE9       30.11S
MARION         PTSUNNY   64  59  82 S17       30.12R
MT. VERNON     SUNNY     66  58  75 S17       30.11R
CENTRALIA*     SUNNY     65  57  75 S9        30.08F
SALEM*         PTSUNNY   65  54  69 S9        30.10S
$$

ILZ067-068-072-073-078-083-087-091-241500-
SOUTHEAST ILLINOIS

CITY           SKY/WX    TMP DP  RH WIND       PRES   REMARKS
LAWRENCEVILLE  SUNNY     61  53  75 S17       30.15R
FLORA*         SUNNY     64  56  77 S10       30.11S
FAIRFIELD*     MOSUNNY   64  56  78 S9        30.12R
HARRISBURG*    SUNNY     66  58  74 S23G30    30.13R
ROBINSON*      MOSUNNY   58  51  77 S12       30.14R
CARMI*         SUNNY     64  58  79 S14       30.14R
$$

ABBREVIATIONS USED IN REMARKS
   TC - TEMPERATURE IN CELSIUS
  WCI - WIND CHILL INDEX
   HX - HEAT INDEX
  VSB - VISIBILITY
$$





USA.gov is the U.S. government's official web portal to all federal, state and local government web resources and services.